Sandberg, CA

4:16 AM PDT on April 23, 2018 (GMT -0700)
Sandberg

Weather History for KSDB - June, 2014

Change the Weather History Date:

Sunday, June 8, 2014

  Actual Average Record
Temperature  
Mean Temperature 84 °F 64 °F  
Max Temperature 98 °F 74 °F 98 °F (2014)
Min Temperature 70 °F 54 °F 37 °F (1968)
Degree Days  
Heating Degree Days 0 4  
Month to date heating degree days 0 36  
Since 1 June heating degree days 0 36  
Since 1 July heating degree days 2513 4064  
Cooling Degree Days 19 3  
Month to date cooling degree days 75 23  
Year to date cooling degree days 225 68  
Since 1 June cooling degree days 75 23  
Growing Degree Days 34 (Base 50)    
Moisture  
Dew Point 35 °F    
Average Humidity 21    
Maximum Humidity 36    
Minimum Humidity 6    
Precipitation  
Precipitation 0.00 in 0.01 in 0.00 in (2018)
Month to date precipitation 0.00 0.03  
Year to date precipitation 3.58 8.45  
Since 1 July precipitation 4.36  
Sea Level Pressure  
Sea Level Pressure 29.80 in    
Wind  
Wind Speed 12 mph (North)    
Max Wind Speed 30 mph    
Max Gust Speed 41 mph    
Visibility 10 miles    
Events      
T = Trace of Precipitation, MM = Missing Value Source: NWS Daily Summary

Daily Weather History Graph

Daily Weather History Graph

Search for Another Location

Airport or City:

Astronomy

Jun. 08, 2014 Rise Set
Actual Time 5:41 AM PDT 8:06 PM PDT
Civil Twilight 5:11 AM PDT 8:36 PM PDT
Nautical Twilight 4:35 AM PDT 9:12 PM PDT
Astronomical Twilight 3:56 AM PDT 9:52 PM PDT
Moon 3:39 PM PDT (6/8) 2:26 AM PDT (6/8)
Length of Visible Light 15h 24m
Length of Day
14h 25m
Waxing Gibbous, 78% of the Moon is Illuminated
Jun 8
Waxing Gibbous
Jun 12
Full
Jun 19
Last Quarter
Jun 27
New
Jul 5
First Quarter

Hourly Weather History & Observations

Time (PDT) Temp. Dew Point Humidity Pressure Visibility Wind Dir Wind Speed Gust Speed Precip Events Conditions
12:48 AM 75.0 °F 33.1 °F 22% 29.79 in 10.0 mi Variable 3.5 mph - N/A   Clear
1:48 AM 73.9 °F 34.0 °F 23% 29.78 in 10.0 mi NW 9.2 mph - N/A   Clear
2:48 AM 73.0 °F 35.1 °F 25% 29.77 in 10.0 mi WNW 13.8 mph 26.5 mph N/A   Clear
3:48 AM 73.0 °F 34.0 °F 24% 29.77 in 10.0 mi NNW 23.0 mph 36.8 mph N/A   Clear
4:48 AM 73.0 °F 36.0 °F 26% 29.77 in 10.0 mi North 19.6 mph 33.4 mph N/A   Clear
5:48 AM 70.0 °F 41.0 °F 35% 29.80 in 10.0 mi North 9.2 mph 24.2 mph N/A   Clear
6:48 AM 73.9 °F 39.9 °F 29% 29.81 in 10.0 mi North 16.1 mph 23.0 mph N/A   Clear
7:48 AM 78.1 °F 39.0 °F 25% 29.82 in 10.0 mi North 8.1 mph 23.0 mph N/A   Clear
8:48 AM 82.0 °F 37.9 °F 21% 29.83 in 10.0 mi North 11.5 mph 17.3 mph N/A   Clear
9:48 AM 87.1 °F 36.0 °F 16% 29.82 in 10.0 mi North 8.1 mph - N/A   Clear
10:48 AM 91.0 °F 30.9 °F 12% 29.83 in 10.0 mi NE 8.1 mph - N/A   Clear
11:48 AM 93.9 °F 27.0 °F 9% 29.82 in 10.0 mi East 18.4 mph 24.2 mph N/A   Clear
12:48 PM 96.1 °F 21.9 °F 7% 29.80 in 10.0 mi East 15.0 mph 27.6 mph N/A   Clear
1:48 PM 97.0 °F 21.0 °F 6% 29.80 in 10.0 mi East 15.0 mph 25.3 mph N/A   Clear
2:48 PM 97.0 °F 19.9 °F 6% 29.79 in 10.0 mi ESE 10.4 mph 18.4 mph N/A   Clear
3:48 PM 97.0 °F 26.1 °F 8% 29.77 in 10.0 mi South 13.8 mph 20.7 mph N/A   Clear
4:48 PM 91.9 °F 43.0 °F 18% 29.78 in 10.0 mi SSE 11.5 mph - N/A   Clear
5:48 PM 88.0 °F 41.0 °F 19% 29.79 in 10.0 mi SW 9.2 mph - N/A   Clear
6:48 PM 86.0 °F 37.9 °F 18% 29.79 in 10.0 mi SSW 6.9 mph - N/A   Clear
7:48 PM 80.1 °F 39.9 °F 24% 29.81 in 10.0 mi WNW 4.6 mph - N/A   Clear
8:48 PM 77.0 °F 43.0 °F 30% 29.81 in 10.0 mi NNW 15.0 mph - N/A   Clear
9:48 PM 78.1 °F 37.9 °F 24% 29.81 in 10.0 mi NNW 12.7 mph - N/A   Clear
10:48 PM 77.0 °F 37.0 °F 24% 29.81 in 10.0 mi NW 11.5 mph - N/A   Clear
11:48 PM 78.1 °F 36.0 °F 22% 29.80 in 10.0 mi NNW 10.4 mph - N/A   Clear